Location: *
(38.8181°S, 103.0319°E)
Time: 01:43:57
(UTC+00:00)

Daily predictions for brighter satellites

Satellite Brightness Start Highest point End
(mag) Time Altitude Azimuth Time Altitude Azimuth Time Altitude Azimuth
PAYLOAD A 4.4 11:28:13 10° S 11:33:32 76° WSW 11:38:56 10° NNW
Cosmos 1842 Rocket 3.8 11:30:55 10° S 11:35:16 51° E 11:39:32 10° NNE
Cosmos 1953 3.1 11:31:50 10° SSW 11:35:55 59° W 11:39:55 10° N
USA 234 3.4 11:29:45 10° SE 11:36:14 55° NE 11:42:40 10° NNW
Cosmos 1805 4.2 11:33:59 10° SSW 11:37:53 54° W 11:41:44 10° N
Cosmos 921 Rocket 3.8 11:35:15 10° NNE 11:38:56 29° E 11:42:43 10° SE
SPOT 3 Rocket 3.9 11:33:47 10° S 11:39:01 74° WSW 11:44:09 10° NNW
SL-27 R/B 4.2 11:37:27 10° SSE 11:40:07 18° ESE 11:42:45 10° ENE
Meteor 1-24 Rocket 4.3 11:40:20 10° NNE 11:44:58 31° E 11:49:42 10° SSE
Cosmos 2251 Rocket 3.6 11:41:40 10° SSW 11:47:04 88° WNW 11:52:21 10° NNE
Cosmos 1634 Rocket 4.3 11:40:53 10° S 11:47:06 49° ESE 11:53:12 10° NNE
Helios 1B rocket 4.1 11:44:06 10° N 11:48:01 40° W 11:52:01 10° SSW
YAOGAN 1 3.3 11:43:44 10° S 11:48:06 61° WSW 11:52:23 10° NNW
Meteor 2-5 Rocket 3.7 11:45:02 10° N 11:50:32 67° E 11:56:11 10° SSE
USA 229 DEB 4.0 11:44:26 10° SSW 11:51:23 54° SE 11:58:11 10° NE
USA 229 4.0 11:44:31 10° SSW 11:51:28 53° SE 11:58:16 10° NE
Cosmos 1437 3.6 11:49:10 10° NNE 11:52:08 31° E 11:55:10 10° SSE
APEX 4.2 11:50:26 10° NNE 11:52:45 18° ENE 11:54:50 10° ESE
